SCP
0 0 0 0 0 0 0 0 0 0 0 0 0 0 0 0 0 0 0 0 0 0 0 0 0 0 0 0 0 0 -0 0 0 0 -0 0 0 -0 0 -0 -0 -0 -0 0 0 1 1
0 0 0 0 0 0 0 0 0 0 0 0 0 0 0 0 0 0 0 0 0 0 0 0 0 0 0 0 0 0 -0 0 0 -0 -0 -0 -0 0 0 -0 -0 -0 0 0 0 1 1
0 0 0 0 0 0 0 0 0 0 0 0 0 0 0 0 0 0 0 0 0 0 0 0 0 0 0 0 0 0 0 0 0 0 -0 -0 -0 0 -0 -0 -0 0 0 0 0 1 1
0 0 0 0 0 0 0 0 0 0 0 0 0 0 0 0 0 0 0 0 0 0 0 0 0 0 0 0 0 0 0 0 0 0 0 0 -0 0 0 0 -0 0 0 0 0 0 0
0 0 0 0 0 0 0 0 0 0 0 0 0 0 0 0 0 0 0 0 0 0 0 0 0 0 0 0 0 0 0 0 0 0 0 0 0 0 0 -0 -0 0 -0 0 0 0 0
0 0 0 0 0 0 0 0 0 0 0 0 0 0 0 0 0 0 0 0 0 0 0 0 0 0 0 0 0 0 0 0 0 0 0 0 0 0 0 0 -0 -0 -0 -0 0 0 -0
0 0 0 0 0 0 0 0 0 0 0 0 0 0 0 0 0 0 0 0 0 0 0 0 0 0 0 0 0 0 0 0 0 0 0 0 0 0 0 0 0 0 -0 -0 0 0 -0
0 0 0 0 0 0 0 0 0 0 0 0 0 0 0 0 0 0 0 0 0 0 0 0 0 0 0 0 0 0 0 0 0 0 0 0 0 0 0 0 0 0 0 0 -0 0 -0
-0 0 0 0 0 0 0 0 0 0 0 0 0 0 0 0 0 0 0 0 0 0 0 0 0 0 0 0 0 0 0 0 0 0 0 0 0 0 0 0 0 0 0 0 0 0 0
0 -0 -0 0 0 0 0 0 0 0 0 0 0 0 0 0 0 0 0 0 0 -0 0 0 0 0 0 0 0 0 0 0 0 0 0 0 0 0 -0 -0 0 0 0 0 0 0 0
0 -0 -0 -0 0 0 0 0 0 0 0 0 0 0 0 0 0 0 0 0 0 0 0 0 0 0 0 0 0 0 0 0 0 0 0 0 0 0 -0 -0 -0 0 0 0 0 0 0
0 -0 -0 -0 -0 -0 0 0 0 0 0 0 0 0 0 0 0 0 0 0 0 0 0 0 0 0 0 0 0 0 0 0 0 0 0 0 0 0 0 0 0 0 0 0 0 0 0
-0 0 0 0 0 0 0 0 0 0 0 0 0 0 0 0 0 0 0 0 0 0 0 0 0 0 0 0 0 0 0 0 0 0 0 0 0 0 0 0 0 0 0 0 0 0 0
-0 0 -0 -0 -0 -0 -0 0 -0 -0 -0 -0 -0 0 0 0 0 0 0 0 0 0 0 0 0 0 0 0 0 0 0 0 0 0 0 0 0 0 0 0 0 0 0 0 0 0 0
0 -0 -0 -0 -0 -0 -0 -0 -0 -0 -0 -0 0 0 0 0 0 0 0 0 0 0 0 0 0 0 0 0 0 0 0 0 0 0 0 0 0 0 0 0 0 0 0 0 0 0 0
0 0 -0 -0 -0 -0 -0 -0 -0 -0 -0 -0 0 0 0 0 0 0 0 0 0 0 0 0 0 0 0 0 0 0 0 0 0 0 0 0 0 0 0 0 0 0 0 0 0 0 0
0 0 0 -0 -0 -0 -0 -0 -0 -0 -0 -0 0 0 0 0 0 0 0 0 0 0 0 0 0 0 0 0 0 0 0 0 0 0 0 0 0 0 0 0 0 0 0 0 0 0 0
0 -0 -0 0 0 0 -0 -0 0 -0 -0 0 0 0 0 0 0 0 0 0 0 0 0 0 0 0 0 0 0 0 0 0 0 0 0 0 0 0 0 0 0 0 0 0 0 0 0
0 -0 -0 0 0 0 0 -0 -0 0 0 0 0 0 0 0 0 0 0 0 0 0 0 0 0 0 0 0 0 0 0 0 0 0 0 0 0 0 0 0 0 0 0 0 0 0 0
0 -0 -0 -0 0 0 0 0 -0 -0 0 0 0 0 0 0 0 0 0 0 0 0 0 0 0 0 0 0 0 0 0 0 0 0 0 0 0 0 0 0 0 0 0 0 0 0 0
-0 0 -0 -0 -0 -0 0 0 -0 -0 0 0 0 0 0 0 0 0 0 0 0 0 0 0 0 0 0 0 0 0 0 0 0 0 0 0 0 0 0 0 0 0 0 0 0 0 0
0 0 0 0 0 0 -0 0 -0 -0 0 0 0 0 0 0 0 0 0 0 0 0 0 0 0 0 0 0 0 0 0 0 0 0 0 0 0 0 0 0 0 0 0 0 0 0 0
0 0 0 0 0 0 0 -0 0 -0 0 0 0 0 0 0 0 0 0 0 0 0 0 0 0 0 0 0 0 0 0 0 0 0 0 0 0 0 0 0 0 0 0 0 0 0 0
0 0 0 0 0 0 0 0 0 0 0 0 0 0 0 0 0 0 0 0 0 0 0 0 0 0 0 0 0 0 0 0 0 0 0 0 0 0 0 0 0 0 0 0 0 0 0
0 0 0 0 0 0 0 0 0 0 0 0 0 0 0 0 0 0 0 0 0 0 0 0 0 0 0 0 0 0 0 0 0 0 0 0 0 0 0 0 0 0 0 0 0 0 0
0 0 0 0 0 0 0 0 0 0 0 0 0 0 0 0 0 0 0 0 0 0 0 0 0 0 0 0 0 0 0 0 0 0 0 0 0 0 0 0 0 0 0 0 0 0 0
0 0 0 0 0 0 0 0 0 0 0 0 0 0 0 0 0 0 0 0 0 0 0 0 0 0 0 0 0 0 0 0 0 0 0 0 0 0 0 0 0 0 0 0 0 0 0
0 0 0 0 0 0 0 0 0 0 0 0 0 0 0 0 0 0 0 0 0 0 0 0 0 0 0 0 1 0 0 0 0 0 0 0 0 0 0 0 0 0 0 0 0 0 0
0 0 0 0 0 0 0 0 0 0 0 0 0 0 0 0 0 0 0 0 0 0 0 0 0 0 0 1 0 1 2 1 1 0 0 0 0 0 0 0 0 0 0 0 0 0 -0
Wind_Speed_500mb
26 26 27 28 29 29 29 30 31 31 30 30 30 30 29 28 28 29 29 31 31 29 25 22 18 18 12 2 6 10 11 13 17 16 8 2 7 6 8 6 7 3 6 19 20 22 19
24 24 26 28 28 28 29 30 31 32 33 32 32 32 32 31 30 29 30 30 31 31 26 23 19 17 12 5 13 16 15 15 21 18 11 7 3 9 1 6 9 11 23 28 20 17 16
28 25 25 27 28 29 28 29 30 32 33 35 35 35 35 35 33 31 30 30 29 32 26 22 20 18 18 17 9 18 14 12 13 17 15 8 2 4 5 4 7 19 19 20 18 13 5
27 28 27 25 27 29 31 30 30 31 32 35 37 37 37 37 35 33 30 30 28 27 23 20 18 17 12 5 12 18 18 13 13 14 14 10 4 3 4 5 7 7 9 6 16 17 12
25 27 28 27 27 29 30 31 31 31 33 35 36 38 38 38 37 34 30 28 25 21 19 19 16 8 10 5 9 17 25 14 12 12 14 11 8 6 4 7 7 5 2 13 6 23 13
25 24 27 30 30 30 31 32 31 31 33 35 37 38 38 39 37 33 26 24 18 17 18 20 18 10 10 6 2 9 27 23 12 14 16 8 4 4 2 2 5 7 3 2 7 18 24
27 25 27 30 31 32 32 33 32 30 33 36 37 38 37 38 36 28 19 13 10 6 9 14 7 12 19 5 10 10 23 26 18 11 14 4 11 17 12 6 8 3 5 10 14 7 20
30 30 31 31 31 32 32 33 35 33 34 36 38 39 36 35 33 15 14 10 14 13 19 21 30 43 46 35 10 9 25 19 14 14 12 9 20 11 16 12 7 3 4 8 12 14 18
29 28 30 33 33 34 33 34 34 34 36 37 39 39 36 32 21 17 7 13 20 26 8 13 10 15 11 16 13 11 26 16 9 16 19 20 7 25 16 17 11 7 5 6 7 4 3
27 27 28 32 37 37 36 35 35 37 37 38 39 39 37 29 7 18 5 18 28 4 5 5 3 3 4 10 9 24 28 16 6 19 15 10 11 18 14 13 10 15 13 7 6 11 8
28 27 29 32 36 39 39 38 36 37 38 38 38 37 33 27 20 14 8 17 11 6 5 7 2 3 11 9 5 9 29 13 18 15 13 11 13 16 21 23 14 10 4 5 3 4 5
32 31 31 31 33 35 36 37 37 35 37 37 36 35 31 26 18 3 3 10 1 5 7 5 3 1 7 6 2 7 12 8 12 10 4 8 2 5 5 13 7 4 6 6 6 4 8
32 33 32 33 34 35 37 39 38 36 35 35 33 31 31 21 10 12 8 2 4 7 5 8 5 6 4 10 6 5 16 18 14 14 16 4 9 3 5 4 8 7 7 7 7 7 2
32 32 33 34 34 34 37 38 38 37 36 34 31 28 24 18 15 11 4 4 6 2 7 6 8 4 7 9 6 3 10 16 4 7 8 19 13 18 15 19 10 10 14 9 9 6 2
35 38 38 35 34 35 36 38 38 37 37 35 27 21 15 13 16 19 8 8 6 8 3 13 12 4 3 4 5 11 8 10 15 17 15 10 13 5 10 11 16 11 10 3 8 2 6
36 35 39 42 37 37 38 39 39 37 35 34 23 12 5 10 16 27 4 6 6 7 4 4 7 6 5 7 4 4 12 9 15 23 11 13 4 4 7 8 7 8 19 9 3 10 11
40 39 36 42 43 40 39 38 41 39 35 25 13 1 13 10 28 15 9 10 8 12 10 4 4 9 4 4 3 5 7 7 15 24 17 15 11 6 8 12 15 8 8 6 5 3 9
35 40 41 39 44 45 42 41 43 43 37 21 5 2 16 17 8 1 7 7 4 3 4 6 4 10 8 5 5 6 10 14 11 29 27 22 20 21 25 2 4 4 5 11 10 10 3
32 37 39 38 43 44 44 41 40 40 38 29 7 6 20 16 5 7 2 4 5 3 1 1 5 10 2 6 6 11 10 10 23 20 26 20 14 14 12 10 6 13 11 12 4 3 15
33 36 36 41 44 42 44 42 38 37 30 22 7 2 3 3 4 2 2 2 0 7 7 8 8 7 7 7 11 7 6 3 13 21 17 36 16 21 20 12 9 14 13 17 22 10 14
30 36 38 40 41 46 45 42 39 36 27 14 10 5 4 2 4 3 4 1 3 3 4 5 6 8 5 6 6 8 8 10 4 9 7 18 22 22 28 27 22 25 19 18 24 22 18
34 37 38 39 41 43 47 45 39 35 23 16 6 7 10 6 7 5 4 7 10 5 5 5 7 14 11 10 11 6 9 5 5 2 7 6 4 12 14 19 19 21 19 20 25 18 22
35 36 38 37 37 38 41 44 39 35 30 14 13 9 6 4 4 6 6 6 7 3 9 18 10 18 22 17 17 29 30 36 29 11 4 7 11 12 12 11 16 16 28 24 16 18 16
33 35 36 35 36 36 36 38 40 34 30 28 18 10 4 4 6 6 6 5 9 7 12 15 28 11 8 28 47 28 30 36 28 31 28 5 7 5 4 18 15 7 2 21 23 9 24
32 34 35 34 34 35 35 33 33 35 27 27 17 7 4 7 8 17 19 17 21 16 15 27 35 27 34 30 9 9 8 7 13 7 19 25 10 7 8 15 4 6 12 18 22 25 29
30 29 31 30 29 29 30 31 29 30 30 22 13 8 3 5 4 9 9 8 8 8 9 14 18 22 8 5 6 7 10 4 9 8 10 17 5 9 7 9 16 12 18 18 6 18 29
27 26 26 27 29 30 30 31 30 27 29 24 12 9 5 9 14 11 10 6 5 6 8 11 15 6 1 5 7 8 10 3 8 9 9 9 6 18 11 9 6 8 16 24 14 13 50
28 28 28 28 28 28 28 29 27 26 25 25 17 9 9 11 38 40 31 14 12 8 5 11 13 4 6 7 6 4 7 3 5 2 5 9 10 7 6 9 15 20 20 19 17 6 47
27 29 30 29 28 28 27 27 27 25 22 27 16 18 23 24 31 52 63 66 55 49 28 14 9 8 7 5 4 4 7 4 5 14 5 9 7 4 13 10 5 44 9 24 16 20 46
Wind_Direction_500mb
1 2 4 6 7 7 5 3 2 1 360 357 355 350 346 343 341 339 338 336 336 335 334 328 327 317 331 269 201 149 111 122 147 170 186 248 28 42 14 351 114 345 87 74 117 115 111
352 355 355 356 356 355 358 357 355 355 354 353 350 346 342 340 337 335 334 330 329 328 328 324 323 312 320 269 173 150 122 133 149 166 176 170 40 13 45 345 54 97 89 109 129 120 131
349 349 353 351 348 349 347 346 347 348 348 347 346 345 341 337 334 333 327 321 323 322 322 319 317 310 291 249 185 179 160 139 163 177 189 175 129 359 328 97 59 135 97 110 134 143 123
338 340 344 345 344 343 342 339 337 338 340 340 341 341 340 336 332 331 325 316 319 317 313 311 309 310 262 189 210 215 192 169 173 177 177 183 234 26 29 66 55 97 106 177 182 169 180
331 336 338 340 339 339 339 336 333 331 331 333 335 336 338 336 334 333 326 317 314 305 299 299 300 302 272 222 173 181 185 168 154 165 180 168 157 74 33 84 105 48 170 221 160 211 166
333 333 331 332 335 332 333 335 331 330 329 327 329 332 336 336 338 339 333 321 307 293 285 290 269 281 248 215 336 191 176 176 167 160 138 165 101 125 81 151 158 148 251 211 252 205 215
333 329 329 331 330 331 329 330 330 326 326 327 327 329 334 337 342 346 343 337 328 298 293 247 248 268 292 324 319 166 175 171 171 161 177 140 191 216 162 112 135 181 265 327 285 292 215
329 328 328 327 325 324 327 327 326 323 323 326 326 328 334 338 343 4 3 60 53 347 305 288 259 256 261 276 289 188 174 172 170 174 139 165 214 161 153 161 142 207 337 294 286 326 207
327 325 321 320 323 322 321 323 322 323 324 325 325 327 333 339 346 360 81 40 350 332 275 296 274 264 253 216 216 220 184 169 147 166 188 211 158 160 154 158 178 191 222 296 312 342 114
332 325 320 317 317 318 319 319 321 319 320 321 322 326 331 342 9 356 142 350 335 337 308 279 251 319 221 173 234 207 183 170 141 194 170 222 169 190 185 196 214 274 202 266 301 330 329
337 330 323 321 320 320 319 320 317 315 314 316 318 320 325 330 330 332 275 332 345 355 280 12 106 151 161 199 324 183 179 180 163 156 189 174 177 190 219 232 192 247 170 323 29 225 239
342 337 335 333 332 331 331 326 319 314 312 315 314 313 313 317 321 309 307 329 357 254 245 31 99 92 160 233 255 129 170 148 147 126 64 166 299 200 211 141 187 140 166 87 83 163 223
350 351 344 339 337 334 331 328 326 324 316 314 309 306 301 302 292 286 301 181 243 230 341 8 355 338 246 205 216 176 164 171 170 171 190 163 212 189 185 216 157 187 203 245 242 201 282
360 356 351 346 342 336 332 330 331 328 323 313 308 302 291 285 261 244 186 170 222 294 284 329 321 301 201 170 214 143 137 179 118 128 155 201 209 200 179 223 253 185 222 207 244 225 359
4 7 2 353 346 340 337 337 338 334 330 319 318 307 281 254 225 205 178 198 222 212 304 327 312 64 55 140 225 193 204 202 199 188 202 161 225 243 216 188 196 157 196 98 142 114 233
1 2 3 1 353 349 348 346 344 341 337 330 329 317 250 223 187 175 186 217 231 225 296 310 327 11 22 17 149 186 178 199 204 205 219 190 159 207 143 163 75 246 144 167 207 197 233
360 357 2 5 4 0 356 350 347 346 346 340 333 57 340 173 153 160 200 219 239 248 231 251 318 320 310 318 359 196 193 220 213 188 187 160 219 168 216 197 180 153 175 67 123 269 244
6 2 358 3 3 1 358 354 352 351 356 347 14 129 133 105 141 308 190 198 243 277 176 273 257 254 258 283 278 240 233 244 203 162 180 185 208 223 229 269 354 234 225 215 234 182 219
353 1 5 2 3 1 0 359 358 358 357 1 34 69 165 21 170 187 233 236 254 287 292 311 269 234 170 270 281 233 225 263 168 171 167 174 210 204 202 185 141 222 200 208 181 148 202
5 4 360 2 3 3 4 4 3 2 3 11 25 119 99 290 18 64 101 80 352 245 260 229 261 257 242 257 230 286 270 220 199 210 211 174 189 216 223 224 208 202 198 200 216 208 200
1 3 2 3 3 3 5 6 9 8 8 31 32 51 5 190 212 287 301 324 290 277 248 251 225 238 32 277 270 227 245 292 102 109 105 189 211 202 231 232 215 236 232 197 211 235 221
5 359 359 360 0 2 1 5 13 12 13 41 50 16 343 294 292 207 186 223 222 250 254 235 234 340 318 247 251 309 347 280 344 64 157 184 221 195 240 221 219 239 243 213 227 229 252
358 355 354 356 358 360 2 1 8 16 21 40 29 17 4 310 286 228 201 205 229 338 248 258 311 322 298 286 284 279 273 271 275 302 282 210 172 174 232 193 177 241 235 216 214 220 203
349 349 349 349 352 356 357 1 3 9 20 19 6 360 333 281 274 262 314 269 230 266 283 279 298 260 261 308 305 269 253 254 248 247 230 207 184 193 147 154 222 225 243 222 213 258 200
344 347 350 351 351 353 355 357 359 359 9 10 5 6 359 287 292 281 275 268 285 280 264 272 273 261 287 309 278 256 199 213 217 205 217 215 183 160 192 207 335 205 194 184 189 234 194
338 343 349 354 358 358 356 355 358 353 358 6 2 354 332 304 241 287 305 288 281 279 280 252 285 297 286 261 255 243 235 258 178 150 61 172 231 252 171 199 205 210 188 170 149 251 183
334 337 341 344 350 355 356 356 355 352 349 1 360 349 317 275 273 250 239 273 259 270 270 300 336 322 268 239 246 241 236 231 231 198 170 165 192 221 195 246 255 227 151 145 187 226 178
327 330 331 333 336 342 348 350 352 349 346 344 342 331 322 276 276 259 247 246 276 242 265 336 306 197 261 241 238 221 245 181 241 203 211 209 194 190 165 204 249 161 138 190 211 245 179
324 326 325 326 328 331 337 342 341 340 344 335 334 314 299 274 267 281 276 266 250 244 269 265 288 312 283 282 246 282 240 243 261 238 185 242 234 233 216 213 333 192 285 216 193 180 176
Wind_Speed_850mb
26 26 27 28 29 29 29 30 31 31 30 30 30 30 29 28 28 29 29 31 31 29 25 22 18 18 12 2 6 10 11 13 17 16 8 2 7 6 8 6 7 3 6 19 20 22 19
24 24 26 28 28 28 29 30 31 32 33 32 32 32 32 31 30 29 30 30 31 31 26 23 19 17 12 5 13 16 15 15 21 18 11 7 3 9 1 6 9 11 23 28 20 17 16
28 25 25 27 28 29 28 29 30 32 33 35 35 35 35 35 33 31 30 30 29 32 26 22 20 18 18 17 9 18 14 12 13 17 15 8 2 4 5 4 7 19 19 20 18 13 5
27 28 27 25 27 29 31 30 30 31 32 35 37 37 37 37 35 33 30 30 28 27 23 20 18 17 12 5 12 18 18 13 13 14 14 10 4 3 4 5 7 7 9 6 16 17 12
25 27 28 27 27 29 30 31 31 31 33 35 36 38 38 38 37 34 30 28 25 21 19 19 16 8 10 5 9 17 25 14 12 12 14 11 8 6 4 7 7 5 2 13 6 23 13
25 24 27 30 30 30 31 32 31 31 33 35 37 38 38 39 37 33 26 24 18 17 18 20 18 10 10 6 2 9 27 23 12 14 16 8 4 4 2 2 5 7 3 2 7 18 24
27 25 27 30 31 32 32 33 32 30 33 36 37 38 37 38 36 28 19 13 10 6 9 14 7 12 19 5 10 10 23 26 18 11 14 4 11 17 12 6 8 3 5 10 14 7 20
30 30 31 31 31 32 32 33 35 33 34 36 38 39 36 35 33 15 14 10 14 13 19 21 30 43 46 35 10 9 25 19 14 14 12 9 20 11 16 12 7 3 4 8 12 14 18
29 28 30 33 33 34 33 34 34 34 36 37 39 39 36 32 21 17 7 13 20 26 8 13 10 15 11 16 13 11 26 16 9 16 19 20 7 25 16 17 11 7 5 6 7 4 3
27 27 28 32 37 37 36 35 35 37 37 38 39 39 37 29 7 18 5 18 28 4 5 5 3 3 4 10 9 24 28 16 6 19 15 10 11 18 14 13 10 15 13 7 6 11 8
28 27 29 32 36 39 39 38 36 37 38 38 38 37 33 27 20 14 8 17 11 6 5 7 2 3 11 9 5 9 29 13 18 15 13 11 13 16 21 23 14 10 4 5 3 4 5
32 31 31 31 33 35 36 37 37 35 37 37 36 35 31 26 18 3 3 10 1 5 7 5 3 1 7 6 2 7 12 8 12 10 4 8 2 5 5 13 7 4 6 6 6 4 8
32 33 32 33 34 35 37 39 38 36 35 35 33 31 31 21 10 12 8 2 4 7 5 8 5 6 4 10 6 5 16 18 14 14 16 4 9 3 5 4 8 7 7 7 7 7 2
32 32 33 34 34 34 37 38 38 37 36 34 31 28 24 18 15 11 4 4 6 2 7 6 8 4 7 9 6 3 10 16 4 7 8 19 13 18 15 19 10 10 14 9 9 6 2
35 38 38 35 34 35 36 38 38 37 37 35 27 21 15 13 16 19 8 8 6 8 3 13 12 4 3 4 5 11 8 10 15 17 15 10 13 5 10 11 16 11 10 3 8 2 6
36 35 39 42 37 37 38 39 39 37 35 34 23 12 5 10 16 27 4 6 6 7 4 4 7 6 5 7 4 4 12 9 15 23 11 13 4 4 7 8 7 8 19 9 3 10 11
40 39 36 42 43 40 39 38 41 39 35 25 13 1 13 10 28 15 9 10 8 12 10 4 4 9 4 4 3 5 7 7 15 24 17 15 11 6 8 12 15 8 8 6 5 3 9
35 40 41 39 44 45 42 41 43 43 37 21 5 2 16 17 8 1 7 7 4 3 4 6 4 10 8 5 5 6 10 14 11 29 27 22 20 21 25 2 4 4 5 11 10 10 3
32 37 39 38 43 44 44 41 40 40 38 29 7 6 20 16 5 7 2 4 5 3 1 1 5 10 2 6 6 11 10 10 23 20 26 20 14 14 12 10 6 13 11 12 4 3 15
33 36 36 41 44 42 44 42 38 37 30 22 7 2 3 3 4 2 2 2 0 7 7 8 8 7 7 7 11 7 6 3 13 21 17 36 16 21 20 12 9 14 13 17 22 10 14
30 36 38 40 41 46 45 42 39 36 27 14 10 5 4 2 4 3 4 1 3 3 4 5 6 8 5 6 6 8 8 10 4 9 7 18 22 22 28 27 22 25 19 18 24 22 18
34 37 38 39 41 43 47 45 39 35 23 16 6 7 10 6 7 5 4 7 10 5 5 5 7 14 11 10 11 6 9 5 5 2 7 6 4 12 14 19 19 21 19 20 25 18 22
35 36 38 37 37 38 41 44 39 35 30 14 13 9 6 4 4 6 6 6 7 3 9 18 10 18 22 17 17 29 30 36 29 11 4 7 11 12 12 11 16 16 28 24 16 18 16
33 35 36 35 36 36 36 38 40 34 30 28 18 10 4 4 6 6 6 5 9 7 12 15 28 11 8 28 47 28 30 36 28 31 28 5 7 5 4 18 15 7 2 21 23 9 24
32 34 35 34 34 35 35 33 33 35 27 27 17 7 4 7 8 17 19 17 21 16 15 27 35 27 34 30 9 9 8 7 13 7 19 25 10 7 8 15 4 6 12 18 22 25 29
30 29 31 30 29 29 30 31 29 30 30 22 13 8 3 5 4 9 9 8 8 8 9 14 18 22 8 5 6 7 10 4 9 8 10 17 5 9 7 9 16 12 18 18 6 18 29
27 26 26 27 29 30 30 31 30 27 29 24 12 9 5 9 14 11 10 6 5 6 8 11 15 6 1 5 7 8 10 3 8 9 9 9 6 18 11 9 6 8 16 24 14 13 50
28 28 28 28 28 28 28 29 27 26 25 25 17 9 9 11 38 40 31 14 12 8 5 11 13 4 6 7 6 4 7 3 5 2 5 9 10 7 6 9 15 20 20 19 17 6 47
27 29 30 29 28 28 27 27 27 25 22 27 16 18 23 24 31 52 63 66 55 49 28 14 9 8 7 5 4 4 7 4 5 14 5 9 7 4 13 10 5 44 9 24 16 20 46
Wind_Direction_850mb
1 2 4 6 7 7 5 3 2 1 360 357 355 350 346 343 341 339 338 336 336 335 334 328 327 317 331 269 201 149 111 122 147 170 186 248 28 42 14 351 114 345 87 74 117 115 111
352 355 355 356 356 355 358 357 355 355 354 353 350 346 342 340 337 335 334 330 329 328 328 324 323 312 320 269 173 150 122 133 149 166 176 170 40 13 45 345 54 97 89 109 129 120 131
349 349 353 351 348 349 347 346 347 348 348 347 346 345 341 337 334 333 327 321 323 322 322 319 317 310 291 249 185 179 160 139 163 177 189 175 129 359 328 97 59 135 97 110 134 143 123
338 340 344 345 344 343 342 339 337 338 340 340 341 341 340 336 332 331 325 316 319 317 313 311 309 310 262 189 210 215 192 169 173 177 177 183 234 26 29 66 55 97 106 177 182 169 180
331 336 338 340 339 339 339 336 333 331 331 333 335 336 338 336 334 333 326 317 314 305 299 299 300 302 272 222 173 181 185 168 154 165 180 168 157 74 33 84 105 48 170 221 160 211 166
333 333 331 332 335 332 333 335 331 330 329 327 329 332 336 336 338 339 333 321 307 293 285 290 269 281 248 215 336 191 176 176 167 160 138 165 101 125 81 151 158 148 251 211 252 205 215
333 329 329 331 330 331 329 330 330 326 326 327 327 329 334 337 342 346 343 337 328 298 293 247 248 268 292 324 319 166 175 171 171 161 177 140 191 216 162 112 135 181 265 327 285 292 215
329 328 328 327 325 324 327 327 326 323 323 326 326 328 334 338 343 4 3 60 53 347 305 288 259 256 261 276 289 188 174 172 170 174 139 165 214 161 153 161 142 207 337 294 286 326 207
327 325 321 320 323 322 321 323 322 323 324 325 325 327 333 339 346 360 81 40 350 332 275 296 274 264 253 216 216 220 184 169 147 166 188 211 158 160 154 158 178 191 222 296 312 342 114
332 325 320 317 317 318 319 319 321 319 320 321 322 326 331 342 9 356 142 350 335 337 308 279 251 319 221 173 234 207 183 170 141 194 170 222 169 190 185 196 214 274 202 266 301 330 329
337 330 323 321 320 320 319 320 317 315 314 316 318 320 325 330 330 332 275 332 345 355 280 12 106 151 161 199 324 183 179 180 163 156 189 174 177 190 219 232 192 247 170 323 29 225 239
342 337 335 333 332 331 331 326 319 314 312 315 314 313 313 317 321 309 307 329 357 254 245 31 99 92 160 233 255 129 170 148 147 126 64 166 299 200 211 141 187 140 166 87 83 163 223
350 351 344 339 337 334 331 328 326 324 316 314 309 306 301 302 292 286 301 181 243 230 341 8 355 338 246 205 216 176 164 171 170 171 190 163 212 189 185 216 157 187 203 245 242 201 282
360 356 351 346 342 336 332 330 331 328 323 313 308 302 291 285 261 244 186 170 222 294 284 329 321 301 201 170 214 143 137 179 118 128 155 201 209 200 179 223 253 185 222 207 244 225 359
4 7 2 353 346 340 337 337 338 334 330 319 318 307 281 254 225 205 178 198 222 212 304 327 312 64 55 140 225 193 204 202 199 188 202 161 225 243 216 188 196 157 196 98 142 114 233
1 2 3 1 353 349 348 346 344 341 337 330 329 317 250 223 187 175 186 217 231 225 296 310 327 11 22 17 149 186 178 199 204 205 219 190 159 207 143 163 75 246 144 167 207 197 233
360 357 2 5 4 0 356 350 347 346 346 340 333 57 340 173 153 160 200 219 239 248 231 251 318 320 310 318 359 196 193 220 213 188 187 160 219 168 216 197 180 153 175 67 123 269 244
6 2 358 3 3 1 358 354 352 351 356 347 14 129 133 105 141 308 190 198 243 277 176 273 257 254 258 283 278 240 233 244 203 162 180 185 208 223 229 269 354 234 225 215 234 182 219
353 1 5 2 3 1 0 359 358 358 357 1 34 69 165 21 170 187 233 236 254 287 292 311 269 234 170 270 281 233 225 263 168 171 167 174 210 204 202 185 141 222 200 208 181 148 202
5 4 360 2 3 3 4 4 3 2 3 11 25 119 99 290 18 64 101 80 352 245 260 229 261 257 242 257 230 286 270 220 199 210 211 174 189 216 223 224 208 202 198 200 216 208 200
1 3 2 3 3 3 5 6 9 8 8 31 32 51 5 190 212 287 301 324 290 277 248 251 225 238 32 277 270 227 245 292 102 109 105 189 211 202 231 232 215 236 232 197 211 235 221
5 359 359 360 0 2 1 5 13 12 13 41 50 16 343 294 292 207 186 223 222 250 254 235 234 340 318 247 251 309 347 280 344 64 157 184 221 195 240 221 219 239 243 213 227 229 252
358 355 354 356 358 360 2 1 8 16 21 40 29 17 4 310 286 228 201 205 229 338 248 258 311 322 298 286 284 279 273 271 275 302 282 210 172 174 232 193 177 241 235 216 214 220 203
349 349 349 349 352 356 357 1 3 9 20 19 6 360 333 281 274 262 314 269 230 266 283 279 298 260 261 308 305 269 253 254 248 247 230 207 184 193 147 154 222 225 243 222 213 258 200
344 347 350 351 351 353 355 357 359 359 9 10 5 6 359 287 292 281 275 268 285 280 264 272 273 261 287 309 278 256 199 213 217 205 217 215 183 160 192 207 335 205 194 184 189 234 194
338 343 349 354 358 358 356 355 358 353 358 6 2 354 332 304 241 287 305 288 281 279 280 252 285 297 286 261 255 243 235 258 178 150 61 172 231 252 171 199 205 210 188 170 149 251 183
334 337 341 344 350 355 356 356 355 352 349 1 360 349 317 275 273 250 239 273 259 270 270 300 336 322 268 239 246 241 236 231 231 198 170 165 192 221 195 246 255 227 151 145 187 226 178
327 330 331 333 336 342 348 350 352 349 346 344 342 331 322 276 276 259 247 246 276 242 265 336 306 197 261 241 238 221 245 181 241 203 211 209 194 190 165 204 249 161 138 190 211 245 179
324 326 325 326 328 331 337 342 341 340 344 335 334 314 299 274 267 281 276 266 250 244 269 265 288 312 283 282 246 282 240 243 261 238 185 242 234 233 216 213 333 192 285 216 193 180 176